[[{"header":{"parameterUnit":"m.s-1","parameterCategory":1,"la1":30.2991,"la2":30.254,"lo1":-89.0895,"lo2":-89.0444,"dy":0.0017,"dx":0.0017,"nx":28,"ny":28,"refTime":"2024-08-23T21:00:00:Z","depth":0,"parameterNumber":2,"parameterNumberName":"U-component_of_WINDS"},"data":[0,0,0,0,0,0,0,0,0,0,0,0,0,0,0,0,0,0,0,0,0,0,0,0,0,0,0,0,0,0,0,0,0,0,0,0,0,0,0,0,0,0,0,0,0,0,0,0,0,0,0,0,0,0,0,0,0,0,-3.9395,-3.9394,0,-3.9322,-3.9321,-3.932,-3.92,-3.9198,-3.9196,-3.9193,-3.9121,-3.9121,-3.9121,0,0,0,0,0,0,0,0,0,0,0,0,0,-3.9434,-3.9434,-3.9395,-3.9394,-3.9393,-3.9322,-3.9321,-3.932,-3.92,-3.9198,-3.9195,-3.9192,-3.9121,-3.9121,-3.9121,0,0,0,0,0,0,0,0,0,0,0,0,0,-3.9395,-3.9434,-3.9395,-3.9325,-3.9318,-3.9322,-3.9321,-3.932,-3.9201,-3.9198,-3.9194,-3.9191,-3.9121,-3.9121,-3.9121,-3.9189,0,0,-3.9122,-3.9122,0,0,0,0,0,0,0,0,-3.9397,-3.9393,-3.9336,-3.933,-3.9322,-3.9267,-3.9308,-3.9276,-3.9202,-3.9245,-3.9193,-3.919,-3.9172,-3.9168,-3.9162,-3.9186,-3.9183,-3.9122,-3.9122,-3.9122,-3.9122,0,0,0,0,0,0,0,-3.94,-3.9396,-3.9366,-3.9335,-3.9327,-3.9298,-3.9289,-3.9301,-3.9229,-3.9241,-3.9232,-3.9225,-3.9168,-3.9162,-3.9159,-3.9182,-3.9122,-3.9122,-3.9122,-3.9122,-3.9259,-3.9262,0,0,0,0,0,0,-3.9413,-3.9399,-3.9368,-3.9364,-3.9352,-3.93,-3.929,-3.9288,-3.9228,-3.9216,-3.9228,-3.922,-3.9163,-3.9159,-3.9156,-3.9232,-3.9122,-3.9123,-3.9123,-3.9255,-3.9259,-3.9263,0,0,0,0,0,0,-3.9414,-3.9411,-3.9371,-3.9379,-3.9372,-3.9303,-3.9302,-3.9288,-3.9282,-3.9218,-3.9205,-3.9235,-3.916,-3.9156,-3.9182,-3.9228,-3.9123,-3.9123,-3.9251,-3.9257,-3.9261,-3.9384,0,0,0,0,0,0,-3.9416,-3.9412,-3.9437,-3.938,-3.9372,-3.9398,-3.9304,-3.9289,-3.9282,-3.9271,-3.9221,-3.921,-3.9157,-3.9182,-3.9182,-3.9226,-3.9123,-3.9247,-3.9254,-3.926,-3.9376,-3.9393,-3.9408,0,0,0,0,0,-3.9417,-3.9474,-3.9438,-3.9435,-3.9401,-3.9401,-3.9396,-3.9334,-3.9286,-3.9311,-3.927,-3.9211,-3.9223,-3.9186,-3.9185,-3.923,-3.9244,-3.9252,-3.9259,-3.9369,-3.939,-3.9407,0,0,0,0,0,0,-3.9538,-3.9466,-3.9425,-3.9465,-3.944,-3.938,-3.9409,-3.9358,-3.9346,-3.9336,-3.926,-3.925,-3.9286,-3.926,-3.922,-3.9293,-3.9224,-3.9232,-3.9308,-3.9327,-3.9343,-3.9348,-3.9123,0,0,0,0,0,-3.957,-3.9575,-3.9512,-3.9554,-3.9543,-3.9479,-3.9476,-3.9431,-3.9402,-3.939,-3.9351,-3.9326,-3.9324,-3.9324,-3.9319,-3.9372,-3.936,-3.9402,-3.9418,-3.9432,-3.9439,-3.9466,-3.9484,-3.9289,-3.9289,-3.9289,0,0,-3.9635,-3.9596,-3.9604,-3.9577,-3.9552,-3.956,-3.947,-3.9482,-3.9488,-3.9392,-3.9414,-3.9385,-3.9352,-3.9392,-3.9408,-3.9372,-3.9491,-3.9442,-3.9453,-3.9453,-3.9476,-3.9495,-3.9511,-3.9294,-3.9293,-3.9293,0,0,-3.9757,-3.9728,-3.976,-3.9737,-3.97,-3.9656,-3.9665,-3.9613,-3.9589,-3.961,-3.9539,-3.9545,-3.9543,-3.9522,-3.9512,-3.9628,-3.9574,-3.9628,-3.9712,-3.9739,-3.9754,-3.9767,-3.9809,-3.9825,-3.9636,-3.9637,-3.9637,0,-3.9843,-3.9851,-3.9783,-3.9799,-3.979,-3.9704,-3.9736,-3.9717,-3.9681,-3.9677,-3.9637,-3.9633,-3.9605,-3.9639,-3.9667,-3.9662,-3.9669,-3.9633,-3.9757,-3.977,-3.9781,-3.982,-3.9836,-3.9643,-3.9643,-3.9642,-3.9641,0,-3.9958,-3.9965,-3.9996,-3.9962,-3.9956,-3.9981,-3.9917,-3.992,-3.9875,-3.9837,-3.986,-3.9823,-3.9809,-3.9814,-3.9771,-3.9843,-3.9821,-3.9771,-3.9701,-3.9808,-3.9843,-3.9858,-3.9653,-3.9651,-3.9649,-3.9647,0,0,-4.0154,-4.0083,-4.0095,-4.0079,-4.0033,-4.0037,-4.0059,-4.0044,-4.0048,-4.0026,-4.0043,-4.0043,-3.9996,-3.9984,-3.9938,-3.9962,-4.0057,-3.9908,-3.9906,-3.9937,-4.0135,-4.0173,-4.0192,-4.0021,-4.0024,-4.0026,-4.0138,0,-4.0267,-4.0298,-4.0238,-4.0284,-4.029,-4.0208,-4.0227,-4.0201,-4.0166,-4.0167,-4.0129,-4.0131,-4.0068,-4.0061,-4.0081,-4.0041,-4.0096,-4.0032,-4.0036,-4.0037,-4.0047,-4.021,-4.025,-4.0358,-4.0151,-4.0153,-4.0155,0,-4.0402,-4.0386,-4.0433,-4.0384,-4.0384,-4.0402,-4.0384,-4.0386,-4.0356,-4.0329,-4.0316,-4.0262,-4.028,-4.0213,-4.0238,-4.0197,-4.0195,-4.0176,-4.0179,-4.0177,-4.0103,-4.0212,-4.039,-4.0407,-4.0176,-4.0174,-4.0173,0,-4.054,-4.0531,-4.0558,-4.0547,-4.0491,-4.0505,-4.0483,-4.0449,-4.0444,-4.0429,-4.0425,-4.0413,-4.0407,-4.0399,-4.0344,-4.03,-4.0376,-4.0304,-4.0355,-4.0356,-4.0374,-4.0374,-4.0554,-4.0374,-4.0373,-4.0373,-4.0373,0,-4.0672,-4.0704,-4.0619,-4.0636,-4.0669,-4.0601,-4.0636,-4.0606,-4.0577,-4.0586,-4.0516,-4.0527,-4.0453,-4.0456,-4.0413,-4.044,-4.0438,-4.0418,-4.0406,-4.0424,-4.0427,-4.0421,-4.0412,-4.0377,-4.0376,-4.0375,-4.0375,0,-4.0832,-4.0777,-4.08,-4.0745,-4.0732,-4.076,-4.0713,-4.0726,-4.0687,-4.0701,-4.07,-4.064,-4.064,-4.0584,-4.0573,-4.0544,-4.059,-4.0565,-4.06,-4.0592,-4.0646,-4.0642,-4.083,-4.0851,-4.0658,-4.066,-4.0661,0,-4.092,-4.0942,-4.089,-4.0891,-4.0872,-4.0875,-4.0869,-4.0803,-4.0801,-4.0769,-4.0787,-4.0781,-4.0773,-4.0778,-4.0733,-4.0725,-4.0699,-4.0765,-4.0697,-4.0715,-4.07,-4.0699,-4.0702,-4.078,-4.0782,-4.0784,-4.0786,0,-4.1082,-4.1053,-4.1048,-4.1034,-4.103,-4.1016,-4.0997,-4.1002,-4.093,-4.0931,-4.093,-4.0924,-4.0913,-4.0909,-4.0892,-4.087,-4.0817,-4.0808,-4.0819,-4.0838,-4.0857,-4.0848,-4.0639,-4.0803,-4.0802,-4.08,-4.0799,-4.0799,-4.1208,-4.1224,-4.119,-4.1187,-4.1166,-4.1151,-4.1161,-4.1123,-4.1121,-4.1106,-4.1067,-4.1073,-4.1043,-4.1015,-4.0998,-4.1002,-4.0969,-4.0986,-4.099,-4.0995,-4.1005,-4.0857,-4.0999,-4.0998,-4.0998,-4.0997,-4.0997,0,-4.1366,-4.134,-4.1338,-4.1314,-4.1312,-4.1261,-4.1238,-4.124,-4.1246,-4.1222,-4.1216,-4.1215,-4.1211,-4.1167,-4.1158,-4.117,-4.1145,-4.117,-4.1168,-4.1164,-4.1035,-4.1026,-4.119,-4.119,-4.119,-4.119,-4.119,-4.119,-4.1448,-4.1473,-4.1441,-4.1456,-4.143,-4.1434,-4.1426,-4.1411,-4.1392,-4.1394,-4.139,-4.1361,-4.1329,-4.1317,-4.1312,-4.1299,-4.1299,-4.1332,-4.1311,-4.1192,-4.1173,-4.1155,-4.1146,-4.1333,-4.1333,-4.1439,-4.144,-4.1441]},{"header":{"parameterUnit":"m.s-1","parameterCategory":1,"la1":30.2991,"la2":30.254,"lo1":-89.0895,"lo2":-89.0444,"dy":0.0017,"dx":0.0017,"nx":28,"ny":28,"refTime":"2024-08-23T21:00:00:Z","depth":0,"parameterNumber":3,"parameterNumberName":"V-component_of_WINDS"},"data":[0,0,0,0,0,0,0,0,0,0,0,0,0,0,0,0,0,0,0,0,0,0,0,0,0,0,0,0,0,0,0,0,0,0,0,0,0,0,0,0,0,0,0,0,0,0,0,0,0,0,0,0,0,0,0,0,0,0,-1.371,-1.3709,0,-1.3641,-1.364,-1.364,-1.3574,-1.3573,-1.3572,-1.3571,-1.35,-1.3499,-1.3498,0,0,0,0,0,0,0,0,0,0,0,0,0,-1.3783,-1.3782,-1.371,-1.3709,-1.3708,-1.3641,-1.364,-1.3639,-1.3574,-1.3573,-1.3572,-1.3571,-1.3501,-1.3499,-1.3498,0,0,0,0,0,0,0,0,0,0,0,0,0,-1.3736,-1.3781,-1.371,-1.3667,-1.3663,-1.3642,-1.364,-1.3639,-1.3574,-1.3573,-1.3571,-1.357,-1.3501,-1.35,-1.3498,-1.3513,0,0,-1.3493,-1.3492,0,0,0,0,0,0,0,0,-1.3739,-1.3734,-1.3675,-1.367,-1.3665,-1.3615,-1.364,-1.3597,-1.3574,-1.3608,-1.3571,-1.357,-1.3539,-1.3535,-1.3524,-1.351,-1.3507,-1.3493,-1.3492,-1.3491,-1.3491,0,0,0,0,0,0,0,-1.3742,-1.3736,-1.3683,-1.3674,-1.3668,-1.3651,-1.3643,-1.3632,-1.3581,-1.3605,-1.36,-1.3592,-1.3537,-1.3526,-1.3522,-1.3506,-1.3493,-1.3491,-1.349,-1.349,-1.3499,-1.35,0,0,0,0,0,0,-1.3752,-1.3739,-1.3685,-1.3681,-1.37,-1.3651,-1.3642,-1.3632,-1.3581,-1.3572,-1.3594,-1.359,-1.353,-1.3524,-1.352,-1.3533,-1.3491,-1.349,-1.3489,-1.3497,-1.3499,-1.35,0,0,0,0,0,0,-1.3754,-1.3748,-1.3688,-1.3709,-1.37,-1.3651,-1.3641,-1.3631,-1.3621,-1.3573,-1.3564,-1.3592,-1.3528,-1.3522,-1.3515,-1.353,-1.3489,-1.3487,-1.3496,-1.3498,-1.35,-1.3561,0,0,0,0,0,0,-1.3756,-1.3749,-1.3755,-1.3709,-1.3699,-1.3685,-1.3641,-1.3631,-1.3618,-1.3613,-1.3569,-1.3561,-1.3527,-1.3518,-1.3513,-1.3527,-1.3486,-1.3494,-1.3497,-1.3499,-1.3558,-1.3565,-1.3571,0,0,0,0,0,-1.3759,-1.3775,-1.3756,-1.3749,-1.3705,-1.3686,-1.368,-1.3641,-1.362,-1.3625,-1.3594,-1.3562,-1.3529,-1.3518,-1.3512,-1.3525,-1.3493,-1.3496,-1.3499,-1.3555,-1.3564,-1.3571,0,0,0,0,0,0,-1.3824,-1.3769,-1.3746,-1.3748,-1.3722,-1.3675,-1.368,-1.3651,-1.3631,-1.3626,-1.3578,-1.3569,-1.3567,-1.3545,-1.3534,-1.3536,-1.3507,-1.3508,-1.3551,-1.3559,-1.3566,-1.3571,-1.3485,0,0,0,0,0,-1.3839,-1.3828,-1.378,-1.3786,-1.3774,-1.373,-1.372,-1.3692,-1.3663,-1.3652,-1.362,-1.3593,-1.3576,-1.3566,-1.3548,-1.3554,-1.3543,-1.356,-1.3567,-1.3573,-1.3575,-1.3575,-1.3582,-1.3509,-1.3509,-1.3509,0,0,-1.3869,-1.3837,-1.3833,-1.3798,-1.3775,-1.3765,-1.3721,-1.3712,-1.3704,-1.365,-1.3642,-1.3618,-1.3584,-1.3583,-1.3581,-1.3565,-1.3592,-1.3576,-1.3581,-1.358,-1.3579,-1.3586,-1.3592,-1.3511,-1.3511,-1.351,0,0,-1.3918,-1.3893,-1.3895,-1.3872,-1.3837,-1.3807,-1.3808,-1.3765,-1.3746,-1.3737,-1.3696,-1.3685,-1.3658,-1.3635,-1.362,-1.3659,-1.3629,-1.3654,-1.369,-1.3691,-1.3696,-1.3701,-1.3714,-1.372,-1.3657,-1.3657,-1.3657,0,-1.396,-1.3943,-1.39,-1.3893,-1.3878,-1.3829,-1.383,-1.381,-1.3771,-1.3762,-1.3744,-1.3707,-1.3682,-1.3674,-1.3684,-1.3673,-1.3672,-1.3659,-1.3699,-1.3703,-1.3707,-1.3719,-1.3725,-1.366,-1.366,-1.3659,-1.3659,0,-1.3995,-1.3984,-1.3989,-1.3953,-1.3939,-1.3936,-1.3892,-1.3883,-1.3855,-1.3827,-1.3817,-1.3784,-1.3758,-1.3754,-1.3727,-1.3743,-1.3733,-1.3708,-1.3677,-1.3718,-1.3729,-1.3733,-1.3665,-1.3664,-1.3663,-1.3662,0,0,-1.4084,-1.4023,-1.4026,-1.4008,-1.3965,-1.3955,-1.395,-1.3924,-1.3917,-1.3891,-1.3885,-1.3862,-1.3837,-1.382,-1.379,-1.3791,-1.3823,-1.3765,-1.3764,-1.3777,-1.3836,-1.3856,-1.3862,-1.3803,-1.3803,-1.3804,-1.3839,0,-1.4126,-1.4114,-1.4074,-1.4073,-1.4062,-1.4014,-1.4009,-1.3982,-1.3955,-1.394,-1.391,-1.3894,-1.3864,-1.3853,-1.3852,-1.382,-1.3834,-1.3816,-1.3796,-1.3795,-1.3805,-1.3867,-1.3888,-1.3923,-1.3843,-1.3844,-1.3844,0,-1.4173,-1.4151,-1.4149,-1.4105,-1.4099,-1.4095,-1.4067,-1.4055,-1.4022,-1.4002,-1.3983,-1.3949,-1.3939,-1.3911,-1.3896,-1.3885,-1.3874,-1.3857,-1.3857,-1.3854,-1.3822,-1.3865,-1.3933,-1.3938,-1.385,-1.385,-1.3849,0,-1.4238,-1.4207,-1.4201,-1.4187,-1.4137,-1.4135,-1.4113,-1.408,-1.4066,-1.4042,-1.4033,-1.4008,-1.3994,-1.3975,-1.3935,-1.3918,-1.3925,-1.3893,-1.3908,-1.3909,-1.3912,-1.3912,-1.3978,-1.3905,-1.3905,-1.3905,-1.3905,0,-1.4289,-1.4289,-1.4229,-1.4226,-1.4225,-1.4179,-1.4179,-1.4153,-1.4123,-1.4113,-1.407,-1.4061,-1.4009,-1.3994,-1.3963,-1.3956,-1.395,-1.3933,-1.3925,-1.3937,-1.3939,-1.3929,-1.3925,-1.3906,-1.3906,-1.3906,-1.3906,0,-1.4361,-1.4321,-1.4311,-1.4264,-1.4252,-1.4253,-1.4211,-1.4206,-1.4176,-1.4163,-1.4158,-1.411,-1.4091,-1.4049,-1.4018,-1.3997,-1.3996,-1.3982,-1.4007,-1.4002,-1.4019,-1.4018,-1.4081,-1.4086,-1.4011,-1.4011,-1.4012,0,-1.4396,-1.4395,-1.4347,-1.4337,-1.4317,-1.4302,-1.4288,-1.4243,-1.4229,-1.4192,-1.419,-1.4167,-1.4146,-1.4117,-1.4079,-1.4055,-1.4039,-1.4063,-1.4035,-1.4047,-1.4038,-1.4039,-1.4038,-1.4069,-1.407,-1.4071,-1.4072,0,-1.4462,-1.4442,-1.4423,-1.4397,-1.4382,-1.4359,-1.4334,-1.4328,-1.4277,-1.4264,-1.4243,-1.4227,-1.4194,-1.4172,-1.4141,-1.4118,-1.4086,-1.408,-1.4082,-1.4095,-1.4109,-1.4101,-1.4024,-1.4079,-1.4078,-1.4078,-1.4078,-1.4077,-1.4516,-1.4512,-1.4478,-1.4458,-1.4434,-1.4412,-1.4404,-1.4372,-1.4354,-1.4324,-1.4298,-1.428,-1.4245,-1.4201,-1.4181,-1.4165,-1.4149,-1.4152,-1.4153,-1.4154,-1.4159,-1.4112,-1.4159,-1.4159,-1.4158,-1.4158,-1.4158,0,-1.4579,-1.4554,-1.4536,-1.4502,-1.4487,-1.4457,-1.4428,-1.4417,-1.4401,-1.4372,-1.4352,-1.4327,-1.4304,-1.4265,-1.4238,-1.4233,-1.4217,-1.4228,-1.4227,-1.4222,-1.4175,-1.4175,-1.4241,-1.4241,-1.4241,-1.4241,-1.4241,-1.4241,-1.461,-1.4602,-1.4578,-1.4557,-1.4532,-1.4513,-1.4499,-1.4477,-1.4454,-1.4428,-1.4409,-1.4383,-1.435,-1.432,-1.4298,-1.4286,-1.4278,-1.4293,-1.4277,-1.4234,-1.4226,-1.4219,-1.4219,-1.4292,-1.4292,-1.4326,-1.4326,-1.4327]}]]